Location: Ballingbuur
(53.0000°N, 5.7667°E)
Time: 20:10:14
(UTC+00:00)

Cosmos 2344 - Pass Details

Date: 29 November 2020
Orbit: 1244 x 2998 km, 63.3° (Epoch: 24 January)

Event Time Altitude Azimuth Distance (km) Brightness Sun altitude
Exits shadow 03:52:49 44° 319° (NW) 2,126 4.4 -30.9°
Maximum altitude 03:56:31 80° 40° (NE) 1,778 4.2 -30.3°
Drops below altitude 10° 04:08:45 10° 128° (SE) 4,824 7.2 -28.5°
Sets 04:12:51 0° 130° (SE) 6,068 7.8 -27.9°
